TimeCST,TemperatureF,Dew PointF,Humidity,Sea Level PressureIn,VisibilityMPH,Wind Direction,Wind SpeedMPH,Gust SpeedMPH,PrecipitationIn,Events,Conditions,WindDirDegrees,DateUTC
12:00 AM,64.4,62.6,94,30.27,6.2,North,9.2,-,N/A,,Overcast,360,2013-10-16 06:00:00
1:00 AM,64.4,62.6,94,30.24,6.2,North,9.2,-,N/A,,Overcast,360,2013-10-16 07:00:00
2:00 AM,64.4,62.6,94,30.21,6.2,North,9.2,-,N/A,,Overcast,360,2013-10-16 08:00:00
3:00 AM,64.4,62.6,94,30.21,6.2,NNE,6.9,-,N/A,,Mostly Cloudy,30,2013-10-16 09:00:00
4:00 AM,64.4,62.6,94,30.24,6.2,NNE,6.9,-,N/A,,Overcast,30,2013-10-16 10:00:00
5:00 AM,64.4,62.6,94,30.24,6.2,North,6.9,-,N/A,,Mostly Cloudy,360,2013-10-16 11:00:00
6:00 AM,64,62,89,29.97,25,North,9.2,,,,Overcast,0,2013-10-16 12:00:00
6:00 AM,64.4,60.8,88,30.27,6.2,North,9.2,-,N/A,,Scattered Clouds,360,2013-10-16 12:00:00
7:00 AM,64.4,62.6,94,30.27,6.2,North,6.9,-,N/A,,Scattered Clouds,360,2013-10-16 13:00:00
8:00 AM,66.2,60.8,83,30.30,6.2,North,13.8,-,N/A,,Scattered Clouds,360,2013-10-16 14:00:00
9:00 AM,69.8,60.8,73,30.30,6.2,North,13.8,-,N/A,,Scattered Clouds,360,2013-10-16 15:00:00
10:00 AM,73.4,60.8,65,30.30,6.2,North,13.8,-,N/A,,Scattered Clouds,360,2013-10-16 16:00:00
11:00 AM,75.2,62.6,65,30.27,6.2,North,11.5,-,N/A,,Scattered Clouds,360,2013-10-16 17:00:00
12:00 PM,77.0,62.6,61,30.27,6.2,North,11.5,-,N/A,,Partly Cloudy,360,2013-10-16 18:00:00
1:00 PM,77.0,64.4,65,30.24,6.2,North,11.5,-,N/A,,Partly Cloudy,360,2013-10-16 19:00:00
2:00 PM,75.2,60.8,61,30.21,6.2,NE,9.2,-,N/A,,Mostly Cloudy,40,2013-10-16 20:00:00
3:00 PM,75.2,62.6,65,30.18,6.2,SSW,6.9,-,N/A,,Mostly Cloudy,200,2013-10-16 21:00:00
4:00 PM,75.2,64.4,69,30.18,6.2,South,6.9,-,N/A,,Partly Cloudy,180,2013-10-16 22:00:00
5:00 PM,71.6,64.4,78,30.21,5.0,South,9.2,-,N/A,Rain,Rain,180,2013-10-16 23:00:00
6:00 PM,68.0,64.4,88,30.21,6.2,South,4.6,-,N/A,,Scattered Clouds,180,2013-10-17 00:00:00
7:00 PM,68.0,64.4,88,30.24,6.2,Calm,Calm,-,N/A,,Mostly Cloudy,0,2013-10-17 01:00:00
8:00 PM,68.0,62.6,83,30.27,6.2,North,6.9,-,N/A,,Mostly Cloudy,360,2013-10-17 02:00:00
9:00 PM,68.0,62.6,83,30.30,6.2,North,6.9,-,N/A,,Mostly Cloudy,360,2013-10-17 03:00:00
10:00 PM,68.0,62.6,83,30.30,6.2,NNE,9.2,-,N/A,,Mostly Cloudy,20,2013-10-17 04:00:00
11:00 PM,66.2,62.6,88,30.27,6.2,North,6.9,-,N/A,,Mostly Cloudy,360,2013-10-17 05:00:00